Temperature
7 7 6 6 7 7 6 6 6 7 8 9 9 9 9 10 10 10 9 9 8 8 7 6 5 4 3 3 3 3 3 3 4 4 4 4 4 4 4 4 5 5 5 5
6 7 7 7 7 7 7 7 7 7 8 9 10 10 10 10 10 9 9 9 8 7 6 5 4 3 3 2 2 2 2 3 3 3 3 3 3 3 4 4 4 4 4 4
5 6 6 5 6 7 6 7 7 8 8 9 8 8 9 10 10 10 10 9 8 7 6 5 4 3 2 2 2 2 2 2 2 2 2 2 2 3 3 3 3 2 2 2
4 5 5 7 7 7 7 7 7 7 8 9 9 10 11 11 11 10 10 9 8 7 6 5 4 3 2 2 2 2 1 2 2 2 2 2 2 2 2 1 2 2 2 1
4 5 5 7 8 7 6 6 7 7 8 9 10 9 9 10 10 10 10 9 8 7 6 5 4 3 2 2 2 2 1 1 2 1 1 1 1 1 1 1 1 1 1 1
5 5 6 8 9 9 8 7 8 8 7 8 8 7 8 10 10 9 9 8 7 6 6 5 4 3 3 2 2 2 2 2 2 1 1 1 1 1 1 1 1 1 0 0
5 5 6 7 8 8 7 7 8 9 8 8 8 9 10 10 9 9 8 8 7 6 6 5 4 4 3 3 2 2 2 2 2 1 1 1 1 1 1 1 1 0 0 -0
5 5 6 8 8 7 7 8 9 9 9 9 10 10 10 9 9 8 8 7 7 6 6 5 5 4 4 3 3 2 2 2 2 1 1 1 1 1 1 1 0 0 -0 -1
5 6 7 8 8 9 9 9 9 9 9 9 10 9 9 9 8 8 7 7 7 6 6 5 5 4 4 3 3 2 2 2 2 1 1 1 1 1 1 0 -0 -0 -1 -1
5 6 7 8 9 9 9 9 9 9 9 9 9 9 9 8 8 7 7 7 6 6 5 5 5 4 4 3 3 2 2 2 2 1 1 1 1 0 0 -0 -0 -1 -1 -2
5 6 7 8 9 9 9 9 9 9 9 9 9 8 8 8 8 7 7 6 6 6 6 5 5 5 4 3 3 3 2 2 2 1 1 1 1 0 -0 -0 -1 -1 -1 -2
5 6 5 7 8 8 8 8 8 8 8 8 8 8 8 8 7 7 7 6 6 6 6 5 5 5 4 4 3 3 2 2 2 1 1 1 0 0 -0 -1 -1 -1 -2 -2
6 6 6 7 7 8 8 8 8 8 7 7 7 7 7 7 7 7 6 6 6 6 5 5 5 4 4 4 3 3 3 2 2 1 1 1 0 -0 -0 -1 -1 -1 -2 -2
5 5 5 6 6 6 7 7 7 7 7 6 6 6 6 6 6 6 6 6 5 5 5 5 4 4 4 4 3 3 2 2 2 1 1 0 0 -0 -1 -1 -1 -2 -2 -2
4 4 4 5 5 5 6 6 6 6 6 6 5 5 5 5 6 6 5 5 5 4 4 4 4 4 4 3 3 3 2 2 1 1 1 0 -0 -1 -1 -1 -1 -2 -2 -3
3 3 3 4 4 4 4 4 5 5 5 4 4 4 4 4 5 5 5 5 4 4 4 4 4 3 3 3 2 2 2 1 1 1 0 -0 -0 -1 -1 -1 -2 -2 -2 -3
2 2 2 2 3 3 3 3 3 3 3 3 4 3 3 3 4 4 4 4 4 4 3 3 3 2 2 2 2 2 1 1 0 -0 -0 -0 -1 -1 -1 -1 -2 -2 -2 -3
1 1 2 2 2 2 2 2 2 2 3 3 3 3 3 3 3 3 3 3 3 3 3 2 2 2 2 1 1 1 1 0 -0 -1 -1 -1 -1 -2 -2 -2 -2 -2 -2 -3
-0 0 1 1 1 1 1 1 2 2 2 2 2 2 2 2 2 2 2 2 2 2 2 2 1 1 1 1 1 0 0 -0 -1 -1 -1 -2 -2 -2 -2 -2 -2 -2 -3 -3
-1 -1 -1 -0 0 0 1 1 1 1 1 2 2 2 2 2 2 2 2 2 2 1 1 1 1 1 0 0 -0 -0 -0 -1 -1 -1 -2 -2 -2 -2 -2 -2 -2 -3 -3 -3
-2 -2 -1 -1 -1 -0 -0 0 1 1 1 1 1 1 1 1 1 1 1 1 1 1 1 1 1 0 -0 -0 -0 -1 -1 -1 -1 -2 -2 -2 -3 -3 -3 -3 -3 -3 -3 -3
-2 -2 -2 -2 -1 -1 -1 -0 0 0 0 1 0 0 1 1 0 0 0 0 0 0 0 0 0 -0 -1 -1 -1 -1 -1 -2 -2 -2 -3 -3 -3 -3 -3 -3 -3 -3 -3 -3
-2 -2 -2 -2 -1 -1 -1 -1 -0 -0 -0 -0 -0 0 0 0 -0 -0 -0 -0 -0 -0 -0 -0 -0 -1 -1 -1 -1 -2 -2 -2 -2 -3 -3 -3 -3 -3 -3 -3 -3 -3 -3 -3
-2 -2 -2 -2 -2 -2 -1 -1 -1 -1 -1 -1 -1 -1 -1 -1 -1 -1 -1 -1 -1 -0 -0 -1 -1 -1 -1 -2 -2 -2 -2 -3 -3 -3 -3 -3 -3 -3 -4 -3 -3 -3 -4 -4
-2 -2 -2 -2 -2 -1 -1 -1 -1 -1 -1 -1 -1 -1 -1 -1 -1 -1 -1 -1 -1 -1 -1 -1 -1 -2 -2 -2 -2 -2 -3 -3 -3 -3 -3 -3 -3 -4 -4 -4 -4 -4 -4 -4
-2 -2 -2 -2 -2 -2 -2 -2 -2 -2 -2 -2 -2 -2 -2 -2 -2 -2 -2 -1 -1 -1 -1 -2 -2 -2 -2 -2 -2 -3 -3 -3 -3 -3 -3 -4 -4 -4 -4 -4 -4 -4 -4 -4
-2 -2 -2 -2 -2 -2 -2 -2 -2 -2 -2 -2 -2 -2 -2 -2 -2 -2 -2 -2 -2 -2 -2 -2 -2 -2 -2 -2 -3 -3 -3 -3 -3 -3 -4 -4 -4 -4 -4 -4 -4 -5 -5 -5
Wind_Speed
2 2 6 6 9 12 12 10 9 8 8 9 10 11 11 10 9 9 9 8 8 8 6 5 4 3 3 2 3 3 4 5 5 5 5 6 7 7 7 8 9 8 8 9
1 1 3 4 9 13 14 12 10 7 8 7 7 7 8 9 11 10 10 9 9 8 8 6 5 4 3 3 3 3 4 4 4 5 6 6 6 7 8 8 8 9 9 9
2 0 2 7 12 15 10 9 11 14 11 4 6 10 12 11 11 11 10 10 10 9 8 7 6 5 4 4 4 4 4 4 4 5 6 6 6 7 7 7 8 9 9 9
2 1 7 8 5 9 12 11 11 9 8 9 9 8 8 9 11 10 10 10 10 9 8 7 5 5 5 5 4 4 4 4 4 5 5 6 6 7 6 6 7 7 8 8
3 4 8 8 4 6 8 8 12 13 9 8 6 4 2 5 8 9 10 8 9 9 8 7 7 6 6 5 5 4 4 4 4 4 5 5 5 5 5 5 6 6 5 6
3 3 6 5 3 3 4 6 7 12 12 9 10 7 6 6 6 7 8 9 9 9 7 8 7 7 7 6 5 5 4 4 4 4 5 4 5 4 4 4 4 4 4 4
4 4 7 7 2 5 3 6 5 6 10 11 10 7 5 8 7 7 8 9 10 10 8 8 8 8 8 7 6 5 5 5 4 4 4 4 4 3 3 4 4 3 2 2
5 6 8 4 5 6 6 3 2 2 6 8 6 6 7 8 8 10 9 9 10 10 8 8 9 9 8 7 6 6 5 5 5 4 4 4 4 3 3 3 3 2 1 1
8 9 6 5 7 5 4 2 0 2 4 7 6 5 6 6 8 9 10 10 9 9 9 8 9 9 10 8 7 7 6 6 5 5 4 4 5 4 3 3 2 2 2 2
5 7 7 6 5 3 3 3 2 3 4 5 5 6 6 6 8 9 9 10 10 10 10 10 10 9 8 8 9 8 7 7 6 5 5 4 3 4 4 4 3 3 3 3
5 6 4 4 4 4 3 3 3 3 3 4 5 5 6 6 8 9 10 10 10 12 12 12 10 10 9 9 10 9 8 7 6 6 6 5 3 3 4 4 5 5 4 3
6 5 4 6 6 4 4 5 5 5 3 2 3 4 4 6 7 8 9 10 10 12 12 11 11 11 10 11 11 10 8 7 6 5 5 5 4 2 4 4 4 5 6 5
5 5 4 4 3 2 4 4 4 4 4 2 1 2 3 4 5 6 8 10 13 13 12 11 12 12 11 12 12 11 9 8 6 6 6 6 5 5 3 3 4 5 5 6
6 3 3 3 3 1 2 3 4 3 2 1 1 2 2 3 3 5 8 10 10 10 11 11 12 12 12 12 12 11 10 10 9 7 7 6 6 5 5 4 4 4 5 7
6 3 4 3 1 1 1 2 3 2 1 1 1 2 2 3 5 6 6 6 7 8 9 10 12 11 11 12 12 12 10 8 7 7 6 6 6 5 5 5 4 4 3 4
5 4 2 1 2 1 1 1 2 1 0 1 2 3 4 5 5 5 4 4 6 8 9 10 11 9 11 12 11 10 9 12 10 7 6 6 6 5 5 5 5 4 4 4
3 3 3 3 3 2 1 1 1 1 1 2 4 5 5 4 4 4 4 4 6 7 7 8 8 7 10 11 11 9 8 9 13 8 7 7 6 6 6 5 5 5 5 5
4 4 3 3 2 2 2 1 0 1 2 3 4 4 4 3 4 5 5 3 3 3 4 5 6 7 9 9 9 8 8 7 7 7 7 6 6 5 5 5 6 6 5 5
5 4 3 2 1 1 1 1 2 2 3 3 4 3 3 3 4 4 3 2 3 5 4 4 7 8 8 9 10 7 8 8 7 6 6 8 7 5 5 5 5 5 5 5
5 5 4 4 4 3 2 3 3 3 4 4 3 3 3 4 4 3 2 3 3 3 2 3 5 6 7 8 10 7 8 8 8 7 6 6 6 6 6 6 6 6 5 5
5 5 5 4 3 4 4 3 3 3 4 4 4 3 4 4 4 3 2 3 3 2 2 4 4 4 5 7 10 6 7 8 8 7 7 7 7 6 6 6 6 6 6 5
4 4 4 4 3 3 3 4 4 3 4 4 4 4 4 4 4 3 2 2 3 3 2 2 2 5 7 8 6 7 7 8 7 7 7 7 7 7 7 7 6 6 5 5
3 3 4 3 3 3 2 3 4 3 3 3 4 4 4 4 3 3 3 3 3 4 2 2 4 7 9 7 6 7 7 8 7 7 7 7 7 7 6 7 6 6 5 5
3 3 3 4 3 3 3 3 4 3 3 3 3 3 3 3 3 2 3 6 7 6 3 3 5 7 8 5 6 6 7 7 7 7 6 6 6 6 6 6 6 6 6 6
4 4 4 3 3 3 3 3 3 3 3 3 3 4 3 2 3 4 4 5 6 5 3 4 5 6 4 4 6 6 6 6 6 6 6 6 6 6 6 6 6 6 6 6
5 5 5 5 4 4 3 3 2 3 3 3 3 3 3 3 4 4 4 4 5 5 3 2 3 3 2 3 5 6 6 6 7 7 6 6 7 6 6 6 7 6 6 6
6 5 5 4 5 4 4 3 3 3 3 3 3 3 3 4 4 4 4 4 4 3 3 3 2 2 2 3 4 4 5 5 5 6 6 6 6 6 6 7 6 6 5 5
Wind_Direction
233 173 162 193 198 196 201 202 200 221 221 229 208 189 183 177 170 167 171 173 171 167 163 155 144 132 115 85 69 72 70 64 55 49 47 48 50 50 50 53 56 53 53 49
329 220 187 232 221 211 215 216 221 235 246 241 208 182 178 178 176 182 188 184 175 168 165 163 157 147 131 109 91 83 79 71 64 61 58 55 55 56 58 59 57 56 55 54
256 334 25 262 225 212 211 210 203 223 229 217 179 186 188 187 189 193 191 181 175 171 168 165 162 153 142 125 106 91 83 76 74 71 68 63 66 63 59 59 60 59 55 54
152 105 241 244 229 203 216 227 209 214 207 199 201 195 190 186 190 195 184 175 171 164 161 159 157 146 134 123 116 108 96 85 82 84 81 77 74 70 66 65 66 65 58 51
164 231 274 285 245 182 195 247 219 215 208 203 186 135 227 213 192 188 177 165 162 160 156 156 157 149 135 130 129 121 110 99 93 96 96 93 87 81 76 79 74 66 60 52
191 232 253 268 285 169 140 266 241 208 199 178 153 178 225 196 167 154 147 148 152 150 148 157 161 149 143 147 145 140 131 121 113 112 114 110 105 99 92 94 91 81 63 43
206 245 268 262 233 116 172 256 295 204 187 172 179 192 181 151 148 149 147 150 152 154 162 169 161 153 156 160 163 154 141 134 131 131 133 131 122 118 119 113 105 94 76 18
187 219 255 247 149 186 225 283 346 136 157 157 156 137 139 151 155 156 156 156 160 164 171 171 165 162 166 176 169 154 149 151 154 157 158 150 143 140 137 135 128 133 135 322
200 220 245 219 209 231 203 195 35 104 126 132 134 151 161 169 171 172 171 171 170 170 173 178 179 176 179 182 168 161 162 169 173 175 174 167 167 171 171 172 177 196 205 227
247 262 261 251 241 238 201 187 162 132 132 137 151 169 179 182 185 185 183 181 177 175 183 191 192 190 187 174 171 169 176 179 178 173 171 171 177 175 175 182 190 202 211 224
253 274 297 277 239 226 211 163 139 124 131 149 160 179 191 196 198 197 194 189 186 191 197 198 193 196 189 177 173 177 181 182 181 178 170 169 172 184 183 201 197 197 207 208
239 242 231 255 251 221 197 194 176 160 150 133 164 199 202 210 207 201 198 192 195 200 203 200 196 199 192 183 179 179 183 186 184 177 175 171 167 173 215 208 211 205 202 205
265 285 265 274 289 219 189 187 168 161 166 177 217 224 224 225 216 207 203 200 203 206 206 200 198 201 195 187 184 186 188 186 183 181 179 180 181 183 204 241 246 242 239 240
298 293 273 250 253 261 164 150 133 119 113 153 242 258 246 243 233 221 219 215 210 206 204 200 201 204 193 185 186 190 188 189 187 187 186 188 192 195 198 210 235 257 259 256
298 290 259 252 193 182 136 131 125 117 76 7 348 313 283 265 258 252 243 222 206 205 205 201 205 204 186 185 187 189 188 188 187 184 186 189 190 192 200 211 220 234 250 268
304 329 322 237 195 184 153 159 161 173 291 305 307 298 288 277 271 270 257 212 199 211 210 206 210 198 181 184 184 186 190 190 183 183 184 186 188 194 201 210 220 228 237 243
273 273 267 259 230 203 187 197 196 221 289 301 301 298 293 289 283 277 268 241 225 224 214 210 209 186 180 183 184 185 183 187 186 184 189 191 193 200 203 207 218 229 237 243
302 284 268 252 221 185 172 179 39 5 340 321 314 310 298 283 275 277 274 264 245 247 235 219 199 181 183 183 182 179 180 182 184 189 190 194 197 199 202 211 221 232 240 252
350 354 4 23 29 166 162 45 4 359 354 340 328 317 306 299 296 292 282 239 232 248 253 223 198 184 185 187 179 177 179 183 187 188 188 202 205 200 205 213 222 228 235 240
357 2 13 20 23 33 37 22 15 14 360 350 345 346 345 337 329 316 291 257 250 253 240 206 192 186 186 188 184 181 183 186 189 189 190 196 201 206 212 219 224 229 233 237
354 359 7 15 23 31 25 14 11 8 3 7 7 353 336 333 339 335 316 293 301 295 247 210 191 186 184 189 190 184 186 189 190 192 197 202 206 212 218 222 227 231 232 236
344 350 356 359 3 10 9 8 7 6 8 6 1 351 346 342 339 332 307 295 310 307 279 218 200 200 198 196 190 187 190 192 193 195 199 202 206 214 221 222 225 229 231 233
325 331 334 337 333 327 341 1 359 355 350 345 344 346 342 330 325 326 322 328 320 310 295 237 228 222 215 200 189 191 194 197 199 201 204 206 210 215 219 221 222 225 228 233
280 292 301 311 316 312 318 329 334 332 329 327 334 339 337 331 327 320 305 316 324 318 292 265 255 239 223 192 187 194 199 203 205 206 207 210 213 215 217 219 223 225 228 235
253 261 264 271 276 275 278 293 304 313 322 321 327 333 333 315 301 306 311 315 322 324 305 284 275 257 224 190 192 197 201 207 209 207 209 212 216 217 219 219 222 226 229 234
242 245 247 245 247 252 254 260 270 282 294 303 310 310 317 318 317 317 316 319 322 324 315 288 284 268 225 205 202 204 206 216 226 220 211 214 218 218 220 222 226 227 231 235
244 244 247 252 248 235 231 235 247 262 268 277 288 295 307 314 320 324 326 326 326 325 313 297 285 269 246 226 217 214 213 213 215 217 215 215 217 220 222 223 225 227 230 235
Height
1483 1481 1485 1486 1485 1486 1489 1491 1494 1487 1484 1478 1477 1477 1479 1481 1484 1487 1489 1490 1491 1491 1491 1491 1490 1489 1487 1486 1486 1485 1485 1485 1485 1484 1484 1484 1484 1484 1484 1483 1483 1482 1481 1480
1486 1482 1482 1483 1481 1482 1482 1482 1483 1482 1479 1473 1473 1476 1478 1480 1482 1484 1485 1487 1488 1488 1488 1488 1487 1486 1485 1484 1484 1483 1483 1483 1483 1483 1483 1483 1483 1483 1483 1483 1482 1481 1480 1479
1491 1484 1483 1485 1475 1474 1475 1473 1474 1475 1472 1470 1471 1472 1474 1476 1478 1480 1482 1483 1484 1485 1485 1485 1484 1484 1483 1482 1482 1482 1482 1482 1482 1482 1483 1483 1483 1483 1483 1483 1482 1481 1480 1479
1493 1488 1492 1471 1464 1464 1466 1465 1466 1465 1465 1466 1467 1468 1471 1473 1475 1477 1478 1480 1481 1482 1482 1483 1482 1482 1482 1482 1482 1482 1481 1481 1482 1482 1483 1483 1483 1483 1483 1483 1483 1482 1481 1480
1491 1490 1481 1467 1460 1461 1464 1463 1458 1459 1460 1463 1465 1468 1469 1470 1472 1474 1475 1477 1479 1480 1480 1481 1481 1481 1481 1481 1481 1481 1481 1482 1482 1483 1483 1484 1484 1484 1484 1484 1483 1483 1482 1481
1484 1484 1479 1464 1457 1456 1460 1461 1451 1452 1455 1459 1462 1468 1467 1467 1469 1471 1473 1474 1476 1477 1478 1479 1480 1480 1480 1481 1481 1481 1482 1483 1483 1483 1484 1484 1485 1485 1485 1485 1484 1483 1483 1482
1482 1480 1472 1460 1457 1458 1466 1459 1450 1448 1450 1454 1457 1460 1462 1464 1466 1468 1470 1472 1474 1475 1476 1478 1479 1479 1480 1481 1481 1482 1483 1483 1484 1484 1485 1485 1485 1486 1485 1485 1485 1484 1483 1482
1478 1478 1473 1456 1457 1459 1457 1452 1449 1448 1449 1452 1455 1458 1460 1462 1464 1466 1468 1470 1471 1473 1475 1476 1478 1479 1479 1480 1481 1482 1483 1483 1484 1485 1485 1485 1486 1486 1486 1485 1485 1484 1482 1481
1469 1466 1457 1454 1454 1453 1452 1452 1451 1450 1451 1453 1455 1457 1459 1461 1463 1464 1466 1468 1469 1471 1473 1475 1476 1477 1479 1480 1481 1482 1482 1483 1484 1484 1485 1485 1485 1485 1485 1484 1484 1483 1481 1480
1462 1457 1454 1452 1452 1452 1452 1452 1452 1452 1453 1454 1455 1457 1459 1460 1461 1462 1464 1465 1467 1469 1470 1472 1474 1475 1477 1479 1479 1480 1481 1482 1483 1483 1484 1484 1484 1484 1484 1483 1482 1481 1480 1478
1459 1455 1452 1450 1450 1451 1451 1451 1452 1452 1453 1454 1455 1456 1457 1458 1459 1460 1461 1462 1464 1465 1467 1469 1471 1473 1475 1476 1477 1478 1479 1480 1481 1482 1482 1482 1482 1482 1482 1482 1481 1480 1478 1476
1456 1452 1452 1449 1448 1449 1449 1450 1450 1451 1452 1453 1453 1454 1455 1455 1456 1457 1458 1459 1460 1461 1463 1465 1467 1469 1471 1473 1474 1475 1476 1477 1478 1479 1480 1480 1480 1480 1480 1479 1478 1477 1475 1473
1453 1451 1449 1447 1447 1447 1447 1447 1448 1449 1450 1450 1451 1451 1452 1452 1453 1453 1454 1454 1455 1457 1458 1460 1462 1464 1467 1469 1470 1472 1473 1474 1475 1476 1477 1477 1477 1477 1477 1477 1476 1474 1472 1470
1450 1448 1446 1445 1444 1444 1445 1445 1446 1446 1447 1447 1448 1448 1448 1448 1449 1449 1449 1450 1451 1452 1453 1455 1457 1459 1462 1464 1466 1467 1469 1470 1471 1472 1473 1474 1474 1474 1474 1473 1473 1471 1470 1467
1446 1445 1444 1442 1442 1442 1442 1443 1443 1443 1444 1444 1444 1444 1444 1444 1444 1444 1445 1445 1446 1446 1447 1449 1450 1453 1456 1458 1460 1462 1464 1465 1467 1468 1469 1470 1470 1470 1470 1470 1469 1467 1466 1464
1443 1442 1441 1440 1439 1439 1440 1440 1440 1440 1440 1441 1441 1441 1440 1440 1440 1440 1440 1440 1441 1441 1442 1443 1445 1447 1449 1451 1453 1456 1458 1460 1462 1463 1464 1465 1466 1466 1466 1465 1464 1463 1461 1459
1441 1439 1438 1437 1437 1437 1437 1437 1437 1437 1437 1437 1437 1436 1436 1435 1435 1435 1435 1435 1436 1436 1437 1438 1439 1441 1443 1445 1447 1449 1451 1453 1455 1457 1459 1460 1461 1461 1461 1461 1460 1459 1457 1455
1439 1438 1437 1436 1435 1435 1435 1435 1435 1434 1434 1434 1433 1433 1432 1432 1431 1431 1431 1431 1431 1431 1432 1433 1434 1435 1436 1438 1440 1442 1444 1446 1449 1451 1453 1454 1455 1456 1457 1456 1455 1454 1453 1451
1437 1436 1434 1434 1433 1433 1433 1432 1432 1432 1431 1431 1430 1430 1429 1428 1427 1427 1427 1427 1427 1427 1428 1429 1429 1429 1430 1432 1434 1435 1437 1440 1442 1444 1446 1448 1450 1451 1451 1451 1450 1449 1448 1446
1437 1435 1433 1432 1432 1431 1431 1431 1430 1430 1429 1429 1428 1427 1426 1425 1425 1424 1423 1423 1423 1423 1423 1424 1424 1424 1425 1426 1427 1429 1431 1433 1436 1438 1440 1442 1444 1445 1446 1446 1445 1444 1443 1441
1437 1435 1434 1432 1432 1431 1431 1430 1429 1429 1428 1427 1426 1425 1424 1423 1422 1421 1420 1420 1420 1419 1419 1419 1419 1420 1420 1421 1422 1423 1425 1427 1430 1432 1434 1436 1438 1440 1440 1441 1440 1439 1438 1437
1438 1436 1434 1433 1432 1431 1430 1429 1429 1428 1427 1426 1425 1423 1422 1421 1420 1419 1418 1417 1416 1416 1415 1415 1415 1415 1415 1416 1417 1418 1420 1422 1425 1427 1429 1431 1433 1434 1435 1435 1435 1434 1433 1432
1438 1437 1435 1434 1433 1431 1430 1429 1428 1427 1426 1424 1423 1422 1420 1419 1418 1417 1416 1415 1414 1413 1412 1412 1411 1411 1412 1412 1413 1414 1416 1418 1420 1422 1424 1427 1428 1430 1430 1431 1430 1430 1428 1427
1438 1436 1435 1433 1432 1431 1430 1429 1427 1426 1424 1423 1422 1420 1419 1418 1416 1415 1414 1412 1411 1410 1409 1409 1408 1408 1408 1409 1409 1411 1412 1414 1416 1418 1420 1422 1423 1424 1425 1425 1425 1424 1423 1422
1436 1435 1434 1432 1431 1430 1429 1427 1426 1424 1423 1422 1420 1419 1417 1416 1415 1413 1412 1410 1409 1408 1407 1406 1406 1405 1405 1405 1406 1407 1409 1410 1412 1414 1415 1417 1418 1419 1420 1420 1420 1419 1418 1417
1433 1432 1431 1430 1429 1428 1427 1425 1424 1423 1422 1420 1419 1417 1416 1414 1413 1411 1410 1408 1407 1406 1405 1404 1403 1403 1402 1403 1403 1404 1405 1407 1408 1409 1411 1412 1413 1414 1415 1415 1415 1414 1413 1412
1428 1427 1426 1426 1425 1425 1424 1423 1422 1421 1419 1418 1417 1415 1414 1412 1411 1409 1408 1406 1405 1403 1402 1401 1400 1400 1400 1400 1400 1401 1401 1402 1403 1404 1406 1407 1408 1408 1409 1409 1409 1408 1408 1407